| time (UTC) | temp F | wind direction | speed MPH | gust MPH | rain 1hr in | rain 24hr in | rain mn in | humidity % | barometer mb |
| 20260831231027 | 58 | 222 | 0.0 | 0.0 | 0.00 | 0.00 | 0.01 | 73 | 1027.2 |
| 20260831230023 | 61 | 194 | 1.0 | 0.0 | 0.00 | 0.00 | 0.01 | 64 | 1027.3 |
| 20260831225022 | 63 | 119 | 0.0 | 0.0 | 0.00 | 0.00 | 0.01 | 51 | 1027.1 |
| 20260831223041 | 64 | 360 | 0.0 | 0.0 | 0.00 | 0.00 | 0.01 | 60 | 1026.7 |
| 20260831222020 | 64 | 355 | 0.0 | 0.0 | 0.00 | 0.00 | 0.01 | 64 | 1027.0 |
| 20260831221021 | 64 | 355 | 0.0 | 0.0 | 0.00 | 0.00 | 0.01 | 59 | 1026.9 |
| 20260831220024 | 65 | 355 | 0.0 | 0.0 | 0.00 | 0.00 | 0.01 | 59 | 1027.0 |
| 20260831215022 | 65 | 355 | 0.0 | 0.0 | 0.00 | 0.00 | 0.01 | 57 | 1026.9 |
| 20260831212041 | 65 | 360 | 0.0 | 0.0 | 0.00 | 0.00 | 0.01 | 57 | 1027.2 |
| 20260831211038 | 65 | 355 | 0.0 | 0.0 | 0.00 | 0.00 | 0.01 | 60 | 1027.6 |
| 20260831205030 | 65 | 360 | 1.0 | 0.0 | 0.00 | 0.00 | 0.01 | 62 | 1028.1 |
| 20260831204029 | 64 | 360 | 1.0 | 0.0 | 0.00 | 0.00 | 0.01 | 65 | 1028.4 |
| 20260831203027 | 63 | 87 | 1.0 | 0.0 | 0.00 | 0.00 | 0.01 | 65 | 1028.3 |
| 20260831202023 | 62 | 81 | 3.0 | 0.0 | 0.00 | 0.00 | 0.01 | 66 | 1028.3 |
| 20260831201020 | 63 | 103 | 1.0 | 0.0 | 0.00 | 0.00 | 0.01 | 65 | 1028.3 |
| 20260831200039 | 64 | 10 | 1.0 | 0.0 | 0.00 | 0.00 | 0.01 | 64 | 1028.4 |
| 20260831195044 | 64 | 76 | 0.0 | 0.0 | 0.00 | 0.00 | 0.01 | 68 | 1027.9 |
| 20260831194034 | 62 | 86 | 0.0 | 0.0 | 0.00 | 0.00 | 0.01 | 72 | 1028.3 |
| 20260831190034 | 60 | 98 | 1.0 | 0.0 | 0.00 | 0.00 | 0.01 | 75 | 1029.2 |
| 20260831185030 | 60 | 105 | 0.0 | 0.0 | 0.00 | 0.00 | 0.01 | 76 | 1029.4 |
| 20260831184026 | 59 | 105 | 0.0 | 0.0 | 0.00 | 0.00 | 0.01 | 76 | 1029.4 |
| 20260831183024 | 59 | 105 | 0.0 | 0.0 | 0.00 | 0.00 | 0.01 | 78 | 1029.5 |
| 20260831182022 | 58 | 105 | 1.0 | 0.0 | 0.00 | 0.00 | 0.01 | 80 | 1029.8 |
| 20260831181022 | 58 | 84 | 1.0 | 0.0 | 0.00 | 0.00 | 0.01 | 82 | 1029.9 |
| 20260831180025 | 58 | 101 | 1.0 | 0.0 | 0.00 | 0.00 | 0.01 | 80 | 1030.0 |
| 20260831175022 | 57 | 131 | 0.0 | 0.0 | 0.00 | 0.00 | 0.01 | 81 | 1030.1 |
| 20260831174038 | 56 | 103 | 0.0 | 0.0 | 0.00 | 0.00 | 0.01 | 80 | 1030.1 |
| 20260831173021 | 55 | 103 | 0.0 | 0.0 | 0.00 | 0.00 | 0.01 | 83 | 1030.2 |
| 20260831172038 | 54 | 102 | 0.0 | 0.0 | 0.00 | 0.00 | 0.01 | 85 | 1030.3 |
| 20260831171033 | 53 | 102 | 0.0 | 0.0 | 0.00 | 0.00 | 0.01 | 88 | 1030.5 |
| 20260831170030 | 52 | 102 | 0.0 | 0.0 | 0.00 | 0.00 | 0.01 | 91 | 1029.9 |
| 20260831165027 | 52 | 337 | 0.0 | 0.0 | 0.00 | 0.00 | 0.01 | 93 | 1029.9 |
| 20260831164026 | 51 | 13 | 0.0 | 0.0 | 0.00 | 0.00 | 0.01 | 95 | 1029.9 |
| 20260831163024 | 50 | 13 | 0.0 | 0.0 | 0.00 | 0.00 | 0.01 | 96 | 1030.0 |
| 20260831162022 | 50 | 13 | 0.0 | 0.0 | 0.00 | 0.00 | 0.01 | 96 | 1030.1 |
| 20260831160024 | 49 | 13 | 0.0 | 0.0 | 0.00 | 0.00 | 0.01 | 96 | 1030.0 |
| 20260831154026 | 48 | 13 | 0.0 | 0.0 | 0.00 | 0.00 | 0.01 | 96 | 1030.1 |
| 20260831153021 | 48 | 326 | 0.0 | 0.0 | 0.00 | 0.00 | 0.01 | 96 | 1030.0 |
| 20260831152037 | 47 | 326 | 0.0 | 0.0 | 0.00 | 0.00 | 0.01 | 97 | 1030.0 |
| 20260831151018 | 47 | 326 | 0.0 | 0.0 | 0.00 | 0.00 | 0.01 | 97 | 1030.0 |
| 20260831150019 | 47 | 326 | 0.0 | 0.0 | 0.00 | 0.00 | 0.01 | 97 | 1030.0 |
| 20260831145021 | 47 | 326 | 0.0 | 0.0 | 0.00 | 0.00 | 0.01 | 97 | 1030.0 |
| 20260831143038 | 46 | 326 | 0.0 | 0.0 | 0.00 | 0.00 | 0.01 | 97 | 1029.7 |
| 20260831142038 | 46 | 326 | 0.0 | 0.0 | 0.00 | 0.00 | 0.01 | 97 | 1029.8 |
| 20260831141036 | 46 | 326 | 0.0 | 0.0 | 0.00 | 0.00 | 0.01 | 97 | 1029.7 |
| 20260831134035 | 45 | 326 | 0.0 | 0.0 | 0.00 | 0.00 | 0.01 | 97 | 1029.2 |
| 20260831133035 | 45 | 326 | 0.0 | 0.0 | 0.00 | 0.00 | 0.01 | 97 | 1029.2 |
| 20260831132034 | 45 | 326 | 0.0 | 0.0 | 0.00 | 0.00 | 0.01 | 96 | 1029.0 |
| 20260831131032 | 44 | 326 | 0.0 | 0.0 | 0.00 | 0.00 | 0.01 | 96 | 1028.8 |
| 20260831125034 | 44 | 326 | 0.0 | 0.0 | 0.00 | 0.00 | 0.01 | 96 | 1028.5 |
| 20260831124034 | 43 | 326 | 0.0 | 0.0 | 0.00 | 0.00 | 0.01 | 96 | 1028.6 |
| 20260831123032 | 43 | 326 | 0.0 | 0.0 | 0.00 | 0.00 | 0.01 | 96 | 1028.3 |
| 20260831122031 | 43 | 326 | 0.0 | 0.0 | 0.00 | 0.00 | 0.01 | 96 | 1028.2 |
| 20260831121028 | 42 | 326 | 0.0 | 0.0 | 0.00 | 0.00 | 0.01 | 96 | 1028.1 |
| 20260831120028 | 42 | 326 | 0.0 | 0.0 | 0.00 | 0.00 | 0.01 | 96 | 1028.1 |
| 20260831115026 | 41 | 326 | 0.0 | 0.0 | 0.00 | 0.00 | 0.01 | 96 | 1027.9 |
| 20260831114025 | 41 | 326 | 0.0 | 0.0 | 0.00 | 0.00 | 0.01 | 96 | 1027.9 |
| 20260831113021 | 41 | 326 | 0.0 | 0.0 | 0.00 | 0.00 | 0.00 | 96 | 1027.9 |
| 20260831112022 | 41 | 326 | 0.0 | 0.0 | 0.00 | 0.00 | 0.00 | 96 | 1027.9 |
| 20260831110020 | 41 | 326 | 0.0 | 0.0 | 0.00 | 0.00 | 0.00 | 96 | 1027.6 |
| 20260831105023 | 42 | 326 | 0.0 | 0.0 | 0.00 | 0.00 | 0.00 | 96 | 1027.7 |
| 20260831104022 | 42 | 326 | 0.0 | 0.0 | 0.00 | 0.00 | 0.00 | 96 | 1027.8 |
| 20260831102021 | 43 | 326 | 0.0 | 0.0 | 0.00 | 0.00 | 0.00 | 96 | 1027.7 |
| 20260831101027 | 42 | 326 | 0.0 | 0.0 | 0.00 | 0.00 | 0.00 | 96 | 1027.6 |
| 20260831095027 | 42 | 326 | 0.0 | 0.0 | 0.00 | 0.00 | 0.00 | 96 | 1027.6 |
| 20260831094023 | 42 | 326 | 0.0 | 0.0 | 0.00 | 0.00 | 0.00 | 95 | 1027.4 |
| 20260831093040 | 42 | 326 | 0.0 | 0.0 | 0.00 | 0.00 | 0.00 | 95 | 1027.4 |
| 20260831091023 | 42 | 326 | 0.0 | 0.0 | 0.00 | 0.00 | 0.00 | 95 | 1028.2 |
| 20260831090019 | 42 | 326 | 0.0 | 0.0 | 0.00 | 0.00 | 0.00 | 95 | 1027.9 |
| 20260831085019 | 42 | 326 | 0.0 | 0.0 | 0.00 | 0.00 | 0.00 | 95 | 1027.9 |
| 20260831084038 | 42 | 326 | 0.0 | 0.0 | 0.00 | 0.00 | 0.00 | 95 | 1027.9 |
| 20260831083039 | 42 | 326 | 0.0 | 0.0 | 0.00 | 0.00 | 0.00 | 95 | 1028.0 |
| 20260831082035 | 42 | 326 | 0.0 | 0.0 | 0.00 | 0.00 | 0.00 | 95 | 1028.0 |
| 20260831081032 | 42 | 326 | 0.0 | 0.0 | 0.00 | 0.00 | 0.00 | 95 | 1028.0 |
| 20260831080034 | 42 | 326 | 0.0 | 0.0 | 0.00 | 0.00 | 0.00 | 95 | 1027.9 |
| 20260831075029 | 43 | 326 | 0.0 | 0.0 | 0.00 | 0.00 | 0.00 | 95 | 1028.0 |
| 20260831074031 | 43 | 326 | 0.0 | 0.0 | 0.00 | 0.00 | 0.00 | 95 | 1028.1 |
| 20260831073027 | 43 | 326 | 0.0 | 0.0 | 0.00 | 0.00 | 0.00 | 95 | 1028.2 |
| 20260831072025 | 43 | 326 | 0.0 | 0.0 | 0.00 | 0.00 | 0.00 | 94 | 1028.2 |
| 20260831071021 | 43 | 326 | 0.0 | 0.0 | 0.00 | 0.00 | 0.00 | 94 | 1028.3 |
| 20260831070027 | 43 | 326 | 0.0 | 0.0 | 0.00 | 0.00 | 0.00 | 94 | 1028.4 |
| 20260831065027 | 44 | 326 | 0.0 | 0.0 | 0.00 | 0.00 | 0.00 | 94 | 1028.5 |
| 20260831064028 | 44 | 326 | 0.0 | 0.0 | 0.00 | 0.00 | 0.00 | 94 | 1028.5 |
| 20260831063027 | 44 | 326 | 0.0 | 0.0 | 0.00 | 0.00 | 0.00 | 93 | 1028.6 |
| 20260831062025 | 45 | 326 | 0.0 | 0.0 | 0.00 | 0.00 | 0.00 | 93 | 1028.4 |
| 20260831061033 | 45 | 326 | 0.0 | 0.0 | 0.00 | 0.00 | 0.00 | 92 | 1028.6 |
| 20260831060028 | 46 | 326 | 0.0 | 0.0 | 0.00 | 0.00 | 0.00 | 92 | 1028.6 |
| 20260831054024 | 45 | 326 | 0.0 | 0.0 | 0.00 | 0.00 | 0.69 | 93 | 1028.5 |
| 20260831053029 | 45 | 326 | 0.0 | 0.0 | 0.00 | 0.00 | 0.69 | 93 | 1028.5 |
| 20260831052026 | 45 | 326 | 0.0 | 0.0 | 0.00 | 0.00 | 0.69 | 93 | 1028.5 |
| 20260831051023 | 46 | 326 | 0.0 | 0.0 | 0.00 | 0.00 | 0.69 | 93 | 1028.5 |
| 20260831050022 | 46 | 326 | 0.0 | 0.0 | 0.00 | 0.00 | 0.69 | 92 | 1028.4 |
| 20260831045018 | 46 | 326 | 0.0 | 0.0 | 0.00 | 0.00 | 0.69 | 92 | 1028.7 |
| 20260831043024 | 47 | 326 | 0.0 | 0.0 | 0.00 | 0.00 | 0.69 | 91 | 1029.3 |
| 20260831042024 | 47 | 327 | 1.0 | 0.0 | 0.00 | 0.00 | 0.69 | 91 | 1029.1 |
| 20260831041020 | 47 | 288 | 0.0 | 0.0 | 0.00 | 0.00 | 0.69 | 91 | 1028.4 |
| 20260831040023 | 47 | 228 | 0.0 | 0.0 | 0.00 | 0.00 | 0.69 | 91 | 1028.4 |
| 20260831034021 | 48 | 206 | 0.0 | 0.0 | 0.00 | 0.00 | 0.69 | 92 | 1029.2 |
| 20260831033017 | 48 | 286 | 0.0 | 0.0 | 0.00 | 0.00 | 0.66 | 91 | 1030.0 |
| 20260831031032 | 49 | 242 | 1.0 | 0.0 | 0.00 | 0.00 | 0.56 | 89 | 1030.1 |
| 20260831030037 | 51 | 273 | 2.0 | 0.0 | 0.00 | 0.00 | 0.53 | 88 | 1029.7 |
| 20260831025033 | 53 | 257 | 0.0 | 0.0 | 0.00 | 0.00 | 0.48 | 89 | 1029.5 |
| 20260831024034 | 53 | 259 | 0.0 | 0.0 | 0.00 | 0.00 | 0.46 | 87 | 1028.7 |
| 20260831023021 | 53 | 228 | 0.0 | 0.0 | 0.00 | 0.00 | 0.46 | 85 | 1028.2 |
| 20260831022022 | 53 | 283 | 0.0 | 0.0 | 0.00 | 0.00 | 0.46 | 85 | 1027.9 |
| 20260831015022 | 53 | 283 | 0.0 | 0.0 | 0.00 | 0.00 | 0.46 | 84 | 1027.3 |
| 20260831014040 | 54 | 283 | 0.0 | 0.0 | 0.00 | 0.00 | 0.46 | 84 | 1027.0 |
| 20260831013036 | 54 | 283 | 0.0 | 0.0 | 0.00 | 0.00 | 0.46 | 82 | 1026.9 |
| 20260831012037 | 54 | 283 | 0.0 | 0.0 | 0.00 | 0.00 | 0.46 | 82 | 1026.8 |
| 20260831011034 | 55 | 283 | 0.0 | 0.0 | 0.00 | 0.00 | 0.46 | 82 | 1027.3 |
| 20260831005032 | 55 | 306 | 0.0 | 0.0 | 0.00 | 0.00 | 0.46 | 80 | 1027.2 |
| 20260831004037 | 56 | 169 | 0.0 | 0.0 | 0.00 | 0.00 | 0.46 | 79 | 1027.2 |
| 20260831003025 | 56 | 169 | 0.0 | 0.0 | 0.00 | 0.00 | 0.46 | 79 | 1027.2 |
| 20260831002026 | 57 | 265 | 0.0 | 0.0 | 0.00 | 0.00 | 0.46 | 78 | 1027.2 |
| 20260831001034 | 57 | 259 | 0.0 | 0.0 | 0.00 | 0.00 | 0.46 | 77 | 1027.1 |
| 20260831000032 | 58 | 250 | 0.0 | 0.0 | 0.00 | 0.00 | 0.46 | 77 | 1027.2 |
| 20260830235032 | 59 | 310 | 0.0 | 0.0 | 0.00 | 0.00 | 0.46 | 75 | 1027.2 |
| 20260830234033 | 59 | 244 | 0.0 | 0.0 | 0.00 | 0.00 | 0.46 | 74 | 1027.2 |
| 20260830232032 | 58 | 9 | 0.0 | 0.0 | 0.00 | 0.00 | 0.46 | 77 | 1027.2 |